Regional Weather Roundup
Issued by NWS

Home | Current Version | Previous Version | Text Only | Print | Product List | Glossary On
Versions: 1 2 3 4 5 6 7 8 9 10 11 12 13 14 15 16 17 18 19 20 21 22 23 24 25 26 27 28 29 30 31 32 33 34 35 36 37 38 39 40 41 42 43 44 45 46 47 48 49 50
000
ASUS43 KTOP 230408
RWRKS

WEATHER ROUNDUP FOR KANSAS
NATIONAL WEATHER SERVICE GOODLAND KS
1100 PM CDT TUE JUL 22 2014

NOTE:  "FAIR" INDICATES FEW OR NO CLOUDS BELOW 12,000 FEET WITH NO
SIGNIFICANT WEATHER AND/OR OBSTRUCTIONS TO VISIBILITY.

KSZ001>006-013>018-027>032-041>047-230500-
NORTHWEST KANSAS

CITY           SKY/WX    TMP DP  RH WIND       PRES   REMARKS
GOODLAND       CLEAR     77  68  73 E10       30.24R
HAYS           CLEAR     81  63  54 S7        30.12R
HILL CITY      CLEAR     82  72  71 E10       30.15R
RUSSELL        CLEAR     82  69  64 S7        30.10R
$$

KSZ061>065-074>080-084>089-230500-
SOUTHWEST KANSAS

CITY           SKY/WX    TMP DP  RH WIND       PRES   REMARKS
DODGE CITY     CLEAR     78  65  63 S7        30.17R
ELKHART          N/A     72  62  71 S7          N/A
GARDEN CITY    CLEAR     78  65  63 S7        30.18R
GREAT BEND     CLEAR     81  68  65 SW6       30.10R
LIBERAL        CLEAR     77  64  65 S7        30.20R
PRATT          CLEAR     81  68  65 S3        30.14R
$$

KSZ066>073-081>083-090>101-230500-
SOUTHEAST KANSAS

CITY           SKY/WX    TMP DP  RH WIND       PRES   REMARKS
CHANUTE        CLEAR     81  75  82 S7        30.06R
COFFEYVILLE    CLEAR     81  76  84 S6        30.05S
HUTCHINSON     CLEAR     77  69  76 SE3       30.09R
MEDICINE LODGE   N/A     80  73  79 CALM      30.10R
NEWTON         CLEAR     82  66  57 S6        30.12S
PARSONS        CLEAR     82  76  81 S3        30.07R
WICHITA INTL   CLEAR     81  73  76 S6        30.08R
WICHITA JABRA  CLEAR     84  74  71 S8        30.08S
WICHITA MCCONL CLEAR     83  76  80 S7        30.09R
WINFIELD       CLEAR     80  75  84 S5        30.08S
$$

KSZ007>012-019>026-033>040-048>060-102>105-230500-
NORTHEAST KANSAS

CITY           SKY/WX    TMP DP  RH WIND       PRES   REMARKS
CONCORDIA      CLEAR     82  71  69 NE8       30.11R
EMPORIA        CLEAR     80  71  74 S7        30.05R
LAWRENCE       CLEAR     85  77  77 NE8       30.03F HAZE    HX  95
MANHATTAN      CLEAR     86  77  74 NE10      30.06R HX  97
MARYSVILLE     CLEAR     79  72  78 NE7       30.11R
OLATHE IND     CLEAR     86  75  69 E7        30.06R HX  95
OLATHE EXE     CLEAR     86  75  69 NE7       30.05R HX  95
SALINA         CLEAR     91  69  48 NE5       30.07R HX  96
TOPEKA BILLARD CLEAR     85  78  80 N3        30.05R HX  96
TOPEKA FORBES  CLEAR     86  76  71 E3        30.05S HX  96
$$



USA.gov is the U.S. government's official web portal to all federal, state and local government web resources and services.